Regional Weather Roundup
Issued by NWS State College, PA

Home | Current Version | Previous Version | Text Only | Print | Product List | Glossary Off
Versions: 1 2 3 4 5 6 7 8 9 10 11 12 13 14 15 16 17 18 19 20 21 22 23 24 25 26 27 28 29 30 31 32 33 34 35 36 37 38 39 40 41 42 43 44 45 46 47 48 49 50

000
ASUS41 KCTP 212010
RWRCTP

REGIONAL WEATHER ROUNDUP
NATIONAL WEATHER SERVICE STATE COLLEGE PA
300 PM EST WED FEB 21 2018

Note: "fair" indicates few or no clouds below 12,000 feet with no
significant weather and/or obstructions to visibility.

* = STATION THAT DOES NOT REPORT PRECIPITATION /E.G. RAIN...SNOW...ETC/
    THUNDER OR FOG.

PAZ002>004-007>009-013>016-020>023-029>032-212100-
WESTERN PENNSYLVANIA

CITY           SKY/WX    TMP DP  RH WIND       PRES   REMARKS
ERIE           LGT RAIN  35  33  92 W7        30.46R
MEADVILLE      LGT RAIN  37  36  96 N10       30.41R
FRANKLIN*      LGT RAIN  40  39  97 N9        30.39R
NEW CASTLE     CLOUDY    41  40  96 N12       30.41F
BEAVER COUNTY  RAIN      41  39  93 N8        30.39R
BUTLER*        CLOUDY    47  44  90 NW9       30.37R
PITTSBURGH INT LGT RAIN  50  47  89 N18       30.36R
PITTSBURGH     CLOUDY    57  51  80 N7        30.32R
INDIANA*       CLOUDY    57  54  88 N5        30.36R FOG
LATROBE        LGT RAIN  59  54  82 N9        30.34R
WASHINGTON CO* LGT RAIN  57  53  86 NW7       30.36R
$$

PAZ004>006-010>012-017>019-024>028-033>037-041-042-045-046-049>053-212100-
CENTRAL PENNSYLVANIA

CITY           SKY/WX    TMP DP  RH WIND       PRES   REMARKS
BRADFORD       LGT RAIN  46  44  93 NW15      30.34R
DUBOIS         CLOUDY    54  51  90 NW6       30.32R FOG
CLEARFIELD     LGT RAIN  58  51  78 NW8       30.31R
JOHNSTOWN      PTSUNNY   60  53  77 NW17      30.30R
ALTOONA        CLOUDY    70  57  63 NW16G26   30.26R
STATE COLLEGE  PTSUNNY   72  57  60 W13G25    30.25R
WILLIAMSPORT   PTSUNNY   68  55  63 W6        30.21R
SELINSGROVE    CLOUDY    75  57  53 W3        30.20S
FT INDIANTOWN  PTSUNNY   79  61  54 SW10      30.21S
CAPITAL CITY   FAIR      81  59  47 SW13      30.20S
HARRISBURG     FAIR      76  56  49 S14G23    30.20S
YORK           FAIR      80  60  50 SW13G20   30.21F
$$

PAZ038>040-043-044-047-048-054-055-060>062-067>071-212100-
EASTERN PENNSYLVANIA

CITY           SKY/WX    TMP DP  RH WIND       PRES   REMARKS
SCRANTON       CLOUDY    74  56  53 W8        30.20R
MOUNT POCONO   CLOUDY    69  55  60 SW12G22   30.25R
ALLENTOWN      FAIR      80  58  46 W18G24    30.21S
QUAKERTOWN*    CLEAR     79  61  53 S10G16    30.22F
READING        FAIR      82  60  47 SW14      30.20S
LANCASTER      FAIR      81  57  43 SW14G23   30.21S
COATESVILLE    FAIR      75 -35   1 S10G16    30.26R
POTTSTOWN      FAIR      77  60  55 S8        30.24S
BLUE BELL      FAIR      73  61  64 SW8       30.25S
DOYLESTOWN     FAIR      77  60  55 SW10G16   30.22S
WILLOW GROVE   NOT AVBL
NORTH PHILA    FAIR      79  61  53 SW18G26   30.24F
PHILADELPHIA   MOSUNNY   77  61  57 SW15G24   30.24F
$$




USA.gov is the U.S. government's official web portal to all federal, state and local government web resources and services.